| time (UTC) | temp F | wind direction | speed knots | gust knots | rain 1hr in | rain 24hr in | rain mn in | humidity % | barometer mb |
| 20260508130521 | 56 | 193 | 2.6 | 7.0 | 0.00 | 0.00 | 0.00 | 69 | 1014.6 |
| 20260508125520 | 55 | 176 | 1.7 | 6.1 | 0.00 | 0.00 | 0.00 | 69 | 1014.7 |
| 20260508124520 | 54 | 178 | 0.9 | 4.3 | 0.00 | 0.00 | 0.00 | 70 | 1014.6 |
| 20260508123521 | 53 | 164 | 0.9 | 4.3 | 0.00 | 0.00 | 0.00 | 70 | 1014.5 |
| 20260508122515 | 52 | 155 | 0.0 | 1.7 | 0.00 | 0.00 | 0.00 | 72 | 1014.5 |
| 20260508121541 | 51 | 0.0 | 0.0 | 0.00 | 0.00 | 0.00 | 74 | 1014.4 | |
| 20260508120541 | 50 | 0.0 | 0.0 | 0.00 | 0.00 | 0.00 | 75 | 1014.5 | |
| 20260508115521 | 50 | 0.0 | 0.0 | 0.00 | 0.00 | 0.00 | 75 | 1014.4 | |
| 20260508114520 | 50 | 0.0 | 0.0 | 0.00 | 0.00 | 0.00 | 75 | 1014.4 | |
| 20260508113520 | 49 | 0.0 | 0.0 | 0.00 | 0.00 | 0.00 | 74 | 1014.3 | |
| 20260508112515 | 49 | 0.0 | 0.0 | 0.00 | 0.00 | 0.00 | 73 | 1014.3 | |
| 20260508111536 | 50 | 0.0 | 1.7 | 0.00 | 0.00 | 0.00 | 72 | 1014.2 | |
| 20260508110521 | 50 | 0.0 | 1.7 | 0.00 | 0.00 | 0.00 | 73 | 1014.2 | |
| 20260508105520 | 50 | 155 | 0.0 | 1.7 | 0.00 | 0.00 | 0.00 | 72 | 1014.2 |
| 20260508104520 | 50 | 0.0 | 0.0 | 0.00 | 0.00 | 0.00 | 72 | 1014.2 | |
| 20260508103520 | 50 | 0.0 | 1.7 | 0.00 | 0.00 | 0.00 | 71 | 1014.1 | |
| 20260508102541 | 51 | 155 | 0.0 | 1.7 | 0.00 | 0.00 | 0.00 | 70 | 1014.1 |
| 20260508101515 | 51 | 154 | 0.0 | 1.7 | 0.00 | 0.00 | 0.00 | 69 | 1014.1 |
| 20260508100521 | 51 | 156 | 0.0 | 3.5 | 0.00 | 0.00 | 0.00 | 69 | 1014.2 |
| 20260508095521 | 51 | 175 | 0.0 | 1.7 | 0.00 | 0.00 | 0.00 | 68 | 1014.2 |
| 20260508094520 | 51 | 175 | 0.0 | 1.7 | 0.00 | 0.00 | 0.00 | 68 | 1014.2 |
| 20260508093521 | 51 | 175 | 0.0 | 1.7 | 0.00 | 0.00 | 0.00 | 69 | 1014.1 |
| 20260508092521 | 51 | 175 | 0.0 | 1.7 | 0.00 | 0.00 | 0.00 | 69 | 1014.1 |
| 20260508091521 | 51 | 178 | 0.9 | 4.3 | 0.00 | 0.00 | 0.00 | 68 | 1014.2 |
| 20260508090536 | 51 | 167 | 0.0 | 2.6 | 0.00 | 0.00 | 0.00 | 69 | 1014.1 |
| 20260508085521 | 51 | 167 | 0.0 | 1.7 | 0.00 | 0.00 | 0.00 | 70 | 1014.1 |
| 20260508084520 | 51 | 167 | 0.0 | 1.7 | 0.00 | 0.00 | 0.00 | 71 | 1014.3 |
| 20260508083520 | 51 | 0.0 | 0.0 | 0.00 | 0.00 | 0.00 | 70 | 1014.2 | |
| 20260508082520 | 51 | 167 | 0.0 | 1.7 | 0.00 | 0.00 | 0.00 | 70 | 1014.3 |
| 20260508081520 | 51 | 167 | 0.0 | 1.7 | 0.00 | 0.00 | 0.00 | 70 | 1014.4 |
| 20260508080515 | 51 | 0.0 | 1.7 | 0.00 | 0.00 | 0.00 | 71 | 1014.4 | |
| 20260508075515 | 51 | 167 | 0.0 | 1.7 | 0.00 | 0.00 | 0.00 | 71 | 1014.5 |
| 20260508074520 | 50 | 0.0 | 1.7 | 0.00 | 0.00 | 0.00 | 72 | 1014.5 | |
| 20260508073520 | 50 | 0.0 | 0.0 | 0.00 | 0.00 | 0.00 | 73 | 1014.6 | |
| 20260508072520 | 50 | 0.0 | 0.0 | 0.00 | 0.00 | 0.00 | 73 | 1014.7 | |
| 20260508071521 | 50 | 0.0 | 0.0 | 0.00 | 0.00 | 0.00 | 74 | 1014.8 | |
| 20260508070520 | 49 | 0.0 | 0.9 | 0.00 | 0.00 | 0.00 | 77 | 1014.9 | |
| 20260508065515 | 50 | 167 | 0.0 | 1.7 | 0.00 | 0.00 | 0.00 | 75 | 1014.9 |
| 20260508064515 | 51 | 0.0 | 0.0 | 0.00 | 0.00 | 0.00 | 71 | 1015.0 | |
| 20260508063521 | 51 | 0.0 | 0.9 | 0.00 | 0.00 | 0.00 | 70 | 1015.0 | |
| 20260508062520 | 51 | 167 | 0.0 | 1.7 | 0.00 | 0.00 | 0.00 | 69 | 1015.1 |
| 20260508061520 | 51 | 167 | 0.0 | 1.7 | 0.00 | 0.00 | 0.00 | 69 | 1015.3 |
| 20260508060518 | 52 | 0.0 | 1.7 | 0.00 | 0.00 | 0.00 | 67 | 1015.2 | |
| 20260508055520 | 52 | 165 | 0.0 | 1.7 | 0.00 | 0.00 | 0.00 | 67 | 1015.2 |
| 20260508054515 | 52 | 169 | 0.0 | 1.7 | 0.00 | 0.00 | 0.00 | 67 | 1015.1 |
| 20260508053520 | 53 | 169 | 0.0 | 1.7 | 0.00 | 0.00 | 0.00 | 66 | 1015.0 |
| 20260508052520 | 53 | 169 | 0.0 | 1.7 | 0.00 | 0.00 | 0.00 | 67 | 1015.1 |
| 20260508051521 | 53 | 169 | 0.0 | 1.7 | 0.00 | 0.00 | 0.00 | 65 | 1015.0 |
| 20260508050520 | 53 | 169 | 0.0 | 2.6 | 0.00 | 0.00 | 0.00 | 65 | 1015.1 |
| 20260508045521 | 53 | 186 | 0.0 | 1.7 | 0.00 | 0.00 | 0.00 | 65 | 1015.1 |
| 20260508044541 | 53 | 188 | 0.0 | 1.7 | 0.00 | 0.00 | 0.00 | 64 | 1015.3 |
| 20260508043521 | 54 | 187 | 0.0 | 2.6 | 0.00 | 0.00 | 0.00 | 63 | 1015.3 |
| 20260508042522 | 54 | 187 | 0.0 | 2.6 | 0.00 | 0.00 | 0.00 | 63 | 1015.4 |
| 20260508041516 | 54 | 191 | 0.0 | 3.5 | 0.00 | 0.00 | 0.00 | 61 | 1015.4 |
| 20260508040521 | 54 | 191 | 0.9 | 4.3 | 0.00 | 0.00 | 0.00 | 62 | 1015.4 |
| 20260508035521 | 54 | 194 | 0.0 | 2.6 | 0.00 | 0.00 | 0.00 | 62 | 1015.2 |
| 20260508034541 | 54 | 197 | 0.0 | 1.7 | 0.00 | 0.00 | 0.00 | 62 | 1015.1 |
| 20260508033541 | 54 | 197 | 0.0 | 1.7 | 0.00 | 0.00 | 0.00 | 64 | 1015.1 |
| 20260508032522 | 54 | 197 | 0.0 | 1.7 | 0.00 | 0.00 | 0.00 | 65 | 1015.0 |
| 20260508031516 | 55 | 197 | 0.0 | 1.7 | 0.00 | 0.00 | 0.00 | 66 | 1014.9 |
| 20260508030536 | 55 | 197 | 0.0 | 1.7 | 0.00 | 0.00 | 0.00 | 63 | 1014.9 |
| 20260508025521 | 55 | 196 | 0.0 | 1.7 | 0.00 | 0.00 | 0.00 | 62 | 1014.8 |
| 20260508024521 | 56 | 0.0 | 1.7 | 0.00 | 0.00 | 0.00 | 61 | 1014.8 | |
| 20260508023521 | 56 | 197 | 0.0 | 1.7 | 0.00 | 0.00 | 0.00 | 59 | 1014.8 |
| 20260508022540 | 56 | 197 | 0.0 | 2.6 | 0.00 | 0.00 | 0.00 | 61 | 1014.7 |
| 20260508021522 | 56 | 198 | 0.0 | 1.7 | 0.00 | 0.00 | 0.00 | 63 | 1014.6 |
| 20260508020516 | 57 | 198 | 0.0 | 3.5 | 0.00 | 0.00 | 0.00 | 61 | 1014.6 |
| 20260508015521 | 57 | 200 | 0.0 | 2.6 | 0.00 | 0.00 | 0.00 | 62 | 1014.4 |
| 20260508014521 | 57 | 200 | 0.0 | 1.7 | 0.00 | 0.00 | 0.00 | 61 | 1014.3 |
| 20260508013521 | 57 | 0.0 | 0.0 | 0.00 | 0.00 | 0.00 | 64 | 1014.1 | |
| 20260508012521 | 57 | 0.0 | 0.0 | 0.00 | 0.00 | 0.00 | 66 | 1014.1 | |
| 20260508011521 | 57 | 0.0 | 0.0 | 0.00 | 0.00 | 0.00 | 70 | 1014.0 | |
| 20260508010521 | 57 | 0.0 | 0.0 | 0.00 | 0.00 | 0.00 | 72 | 1013.9 | |
| 20260508005516 | 57 | 0.0 | 0.0 | 0.00 | 0.00 | 0.00 | 65 | 1013.8 | |
| 20260508004541 | 59 | 0.0 | 0.0 | 0.00 | 0.00 | 0.00 | 62 | 1013.8 | |
| 20260508003521 | 60 | 200 | 0.0 | 0.9 | 0.00 | 0.00 | 0.00 | 62 | 1013.7 |
| 20260508002521 | 61 | 0.0 | 0.0 | 0.00 | 0.00 | 0.00 | 54 | 1013.6 | |
| 20260508001521 | 61 | 200 | 0.0 | 1.7 | 0.00 | 0.00 | 0.00 | 54 | 1013.6 |
| 20260508000521 | 62 | 199 | 0.0 | 1.7 | 0.00 | 0.00 | 0.00 | 53 | 1013.6 |
| 20260507235516 | 63 | 199 | 0.0 | 1.7 | 0.00 | 0.00 | 0.00 | 48 | 1013.6 |
| 20260507234521 | 64 | 0.0 | 0.0 | 0.00 | 0.00 | 0.00 | 43 | 1013.7 | |
| 20260507233521 | 64 | 0.0 | 1.7 | 0.00 | 0.00 | 0.00 | 42 | 1013.7 | |
| 20260507232521 | 64 | 199 | 0.0 | 1.7 | 0.00 | 0.00 | 0.00 | 44 | 1014.0 |
| 20260507231521 | 64 | 200 | 0.0 | 1.7 | 0.00 | 0.00 | 0.00 | 44 | 1014.1 |
| 20260507230521 | 65 | 199 | 0.9 | 2.6 | 0.00 | 0.00 | 0.00 | 36 | 1014.1 |
| 20260507225521 | 65 | 199 | 0.0 | 4.3 | 0.00 | 0.00 | 0.00 | 36 | 1014.2 |
| 20260507224516 | 65 | 200 | 0.0 | 5.2 | 0.00 | 0.00 | 0.00 | 36 | 1014.2 |
| 20260507223521 | 65 | 226 | 0.9 | 3.5 | 0.00 | 0.00 | 0.00 | 37 | 1014.3 |
| 20260507222521 | 65 | 233 | 0.0 | 2.6 | 0.00 | 0.00 | 0.00 | 38 | 1014.3 |
| 20260507221541 | 66 | 234 | 0.0 | 1.7 | 0.00 | 0.00 | 0.00 | 37 | 1014.5 |
| 20260507220521 | 65 | 233 | 0.9 | 3.5 | 0.00 | 0.00 | 0.00 | 36 | 1014.6 |
| 20260507215521 | 66 | 237 | 0.0 | 4.3 | 0.00 | 0.00 | 0.00 | 38 | 1014.6 |
| 20260507214516 | 65 | 199 | 0.0 | 3.5 | 0.00 | 0.00 | 0.00 | 37 | 1014.6 |
| 20260507213516 | 66 | 211 | 0.9 | 3.5 | 0.00 | 0.00 | 0.00 | 41 | 1014.7 |
| 20260507212521 | 66 | 250 | 0.9 | 7.8 | 0.00 | 0.00 | 0.00 | 35 | 1014.8 |
| 20260507211521 | 65 | 273 | 0.9 | 3.5 | 0.00 | 0.00 | 0.00 | 35 | 1014.9 |
| 20260507210521 | 66 | 259 | 1.7 | 6.1 | 0.00 | 0.00 | 0.00 | 40 | 1015.0 |
| 20260507205521 | 65 | 270 | 1.7 | 5.2 | 0.00 | 0.00 | 0.00 | 42 | 1014.9 |
| 20260507204521 | 65 | 269 | 1.7 | 8.7 | 0.00 | 0.00 | 0.00 | 39 | 1014.9 |
| 20260507203516 | 66 | 272 | 2.6 | 7.0 | 0.00 | 0.00 | 0.00 | 41 | 1015.0 |
| 20260507202521 | 65 | 270 | 1.7 | 6.1 | 0.00 | 0.00 | 0.00 | 39 | 1015.1 |
| 20260507201542 | 64 | 249 | 0.0 | 4.3 | 0.00 | 0.00 | 0.00 | 37 | 1015.3 |
| 20260507200521 | 65 | 223 | 0.9 | 3.5 | 0.00 | 0.00 | 0.00 | 39 | 1015.4 |
| 20260507195521 | 65 | 229 | 0.9 | 4.3 | 0.00 | 0.00 | 0.00 | 35 | 1015.7 |
| 20260507194521 | 66 | 273 | 1.7 | 5.2 | 0.00 | 0.00 | 0.00 | 43 | 1015.8 |
| 20260507193516 | 65 | 282 | 0.9 | 2.6 | 0.00 | 0.00 | 0.00 | 37 | 1015.8 |
| 20260507192516 | 65 | 287 | 0.0 | 5.2 | 0.00 | 0.00 | 0.00 | 36 | 1015.9 |
| 20260507191521 | 65 | 264 | 1.7 | 3.5 | 0.00 | 0.00 | 0.00 | 46 | 1016.0 |
| 20260507190521 | 63 | 265 | 0.0 | 3.5 | 0.00 | 0.00 | 0.00 | 41 | 1016.0 |
| 20260507185521 | 63 | 262 | 1.7 | 7.0 | 0.00 | 0.00 | 0.00 | 37 | 1016.1 |
| 20260507184521 | 64 | 245 | 1.7 | 5.2 | 0.00 | 0.00 | 0.00 | 43 | 1016.3 |
| 20260507183521 | 63 | 211 | 0.9 | 4.3 | 0.00 | 0.00 | 0.00 | 41 | 1016.3 |
| 20260507182536 | 63 | 307 | 0.0 | 3.5 | 0.00 | 0.00 | 0.00 | 40 | 1016.2 |
| 20260507181521 | 62 | 277 | 1.7 | 8.7 | 0.00 | 0.00 | 0.00 | 38 | 1016.4 |
| 20260507180521 | 63 | 260 | 1.7 | 7.0 | 0.00 | 0.00 | 0.00 | 40 | 1016.5 |
| 20260507175541 | 63 | 266 | 0.9 | 5.2 | 0.00 | 0.00 | 0.00 | 44 | 1016.6 |
| 20260507174521 | 62 | 261 | 0.9 | 3.5 | 0.00 | 0.00 | 0.00 | 40 | 1016.8 |
| 20260507173521 | 61 | 267 | 0.0 | 4.3 | 0.00 | 0.00 | 0.00 | 39 | 1016.9 |
| 20260507172522 | 62 | 273 | 2.6 | 6.1 | 0.00 | 0.00 | 0.00 | 42 | 1017.1 |
| 20260507171517 | 61 | 280 | 1.7 | 6.1 | 0.00 | 0.00 | 0.00 | 41 | 1017.1 |
| 20260507170541 | 61 | 267 | 0.9 | 7.0 | 0.00 | 0.00 | 0.00 | 49 | 1017.3 |
| 20260507165541 | 61 | 259 | 1.7 | 5.2 | 0.00 | 0.00 | 0.00 | 39 | 1017.3 |
| 20260507164521 | 62 | 270 | 0.9 | 4.3 | 0.00 | 0.00 | 0.00 | 48 | 1017.4 |
| 20260507163521 | 61 | 269 | 0.9 | 5.2 | 0.00 | 0.00 | 0.00 | 46 | 1017.5 |
| 20260507162521 | 60 | 259 | 0.9 | 5.2 | 0.00 | 0.00 | 0.00 | 37 | 1017.6 |
| 20260507161516 | 60 | 280 | 0.9 | 4.3 | 0.00 | 0.00 | 0.00 | 44 | 1017.6 |
| 20260507160539 | 60 | 273 | 0.9 | 4.3 | 0.00 | 0.00 | 0.00 | 42 | 1017.5 |
| 20260507155521 | 59 | 266 | 0.9 | 4.3 | 0.00 | 0.00 | 0.00 | 40 | 1017.6 |
| 20260507154521 | 59 | 243 | 0.9 | 4.3 | 0.00 | 0.00 | 0.00 | 43 | 1017.7 |
| 20260507153541 | 59 | 112 | 0.0 | 3.5 | 0.00 | 0.00 | 0.00 | 44 | 1017.8 |
| 20260507152519 | 59 | 164 | 0.9 | 2.6 | 0.00 | 0.00 | 0.00 | 47 | 1017.9 |
| 20260507151541 | 57 | 132 | 0.9 | 3.5 | 0.00 | 0.00 | 0.00 | 44 | 1017.9 |
| 20260507150515 | 57 | 127 | 0.0 | 1.7 | 0.00 | 0.00 | 0.00 | 44 | 1017.9 |
| 20260507145521 | 56 | 108 | 0.9 | 2.6 | 0.00 | 0.00 | 0.00 | 50 | 1017.9 |
| 20260507144521 | 55 | 76 | 0.0 | 2.6 | 0.00 | 0.00 | 0.00 | 60 | 1017.9 |
| 20260507143521 | 55 | 63 | 0.0 | 2.6 | 0.00 | 0.00 | 0.00 | 61 | 1018.0 |
| 20260507142520 | 54 | 61 | 0.0 | 2.6 | 0.00 | 0.00 | 0.00 | 62 | 1018.1 |
| 20260507141521 | 53 | 54 | 0.0 | 2.6 | 0.00 | 0.00 | 0.00 | 63 | 1018.0 |
| 20260507140516 | 53 | 53 | 0.0 | 0.9 | 0.00 | 0.00 | 0.00 | 65 | 1017.9 |
| 20260507135515 | 52 | 53 | 0.0 | 1.7 | 0.00 | 0.00 | 0.00 | 67 | 1017.8 |
| 20260507134521 | 51 | 44 | 0.0 | 1.7 | 0.00 | 0.00 | 0.00 | 70 | 1017.9 |
| 20260507133521 | 51 | 44 | 0.0 | 1.7 | 0.00 | 0.00 | 0.00 | 71 | 1017.9 |
| 20260507132521 | 50 | 44 | 0.0 | 0.9 | 0.00 | 0.00 | 0.00 | 74 | 1017.9 |
| 20260507131521 | 49 | 0.0 | 1.7 | 0.00 | 0.00 | 0.00 | 78 | 1017.9 |